{"data":{"norad_id":66539,"intl_designator":"2025-265Z","name":"STARLINK-35697","alt_names":[],"object_type":"PAYLOAD","status":"ACTIVE","operator":null,"country":"US","launch_date":"2025-11-19","launch_site_code":"AFETR","launch_vehicle":null,"mission":null,"orbit_class":"UNKNOWN","rcs_meters":null,"size_class":null,"mass_kg":null,"dimensions":null,"purposes":["comms"],"wikipedia_slug":null,"has_3d_model":false,"image_url":null,"decayed_at":null,"tle_current":{"epoch":"2026-05-25T04:26:01.505760Z","epoch_age_seconds":52980,"freshness":"FRESH","line1":"1 66539U 25265Z   26145.18473965  .00011667  00000+0  43273-3 0  9992","line2":"2 66539  42.9982 205.8139 0001393 286.0820  73.9878 15.27586100 28811","mean_motion":15.275861,"eccentricity":0.0001393,"inclination_deg":42.9982,"raan_deg":205.8139,"arg_perigee_deg":286.082,"mean_anomaly_deg":73.9878,"bstar":0.00043273,"rev_number":2881,"period_min":94.266372285006,"perigee_km":482.07506982718,"apogee_km":483.98659118476,"semimajor_km":6861.167830506,"source":"CELESTRAK","updated_at":"2026-05-25T13:38:21.254410Z"}}}